Time,TemperatureF,DewpointF,PressureIn,WindDirection,WindDirectionDegrees,WindSpeedMPH,WindSpeedGustMPH,Humidity,HourlyPrecipIn,Conditions,Clouds,dailyrainin,SolarRadiationWatts/m^2,SoftwareType,DateUTC
2013-01-29 00:03:00,66.4,60.4,29.74,SSE,165,3.0,3.0,81,0.00,,SCT070,0.00,0.00,VWS V14.01,2013-01-29 06:03:00,
2013-01-29 00:08:00,66.4,60.4,29.74,SSW,202,5.0,15.0,81,0.00,,SCT070,0.00,0.00,VWS V14.01,2013-01-29 06:08:00,
2013-01-29 00:13:00,66.4,60.4,29.74,South,169,9.0,15.0,81,0.00,,SCT070,0.00,0.00,VWS V14.01,2013-01-29 06:13:00,
2013-01-29 00:18:00,66.6,60.6,29.74,SSE,167,6.0,9.0,81,0.00,,SCT070,0.00,0.00,VWS V14.01,2013-01-29 06:18:00,
2013-01-29 00:23:00,66.6,60.2,29.74,SSE,168,6.0,14.0,80,0.00,,SCT070,0.00,0.00,VWS V14.01,2013-01-29 06:23:00,
2013-01-29 00:28:00,66.6,60.2,29.74,SSE,159,6.0,13.0,80,0.00,,SCT070,0.00,0.00,VWS V14.01,2013-01-29 06:28:00,
2013-01-29 00:33:00,66.6,60.2,29.74,SSW,197,10.0,15.0,80,0.00,,SCT070,0.00,0.00,VWS V14.01,2013-01-29 06:33:00,
2013-01-29 00:38:00,66.6,60.2,29.74,SSE,165,3.0,12.0,80,0.00,,SCT070,0.00,0.00,VWS V14.01,2013-01-29 06:38:00,
2013-01-29 00:43:00,66.6,59.9,29.74,South,187,6.0,12.0,79,0.00,,SCT070,0.00,0.00,VWS V14.01,2013-01-29 06:43:00,
2013-01-29 00:48:00,66.6,59.9,29.74,South,179,6.0,15.0,79,0.00,,SCT070,0.00,0.00,VWS V14.01,2013-01-29 06:48:00,
2013-01-29 00:53:00,66.6,59.9,29.74,South,182,11.0,11.0,79,0.00,,SCT070,0.00,0.00,VWS V14.01,2013-01-29 06:53:00,
2013-01-29 00:58:00,66.6,59.9,29.74,South,175,1.0,13.0,79,0.00,,SCT070,0.00,0.00,VWS V14.01,2013-01-29 06:58:00,
2013-01-29 01:03:00,66.4,59.7,29.73,South,182,6.0,15.0,79,0.00,,OVC055,0.00,0.00,VWS V14.01,2013-01-29 07:03:00,
2013-01-29 01:08:00,66.4,59.7,29.73,South,170,2.0,9.0,79,0.00,,OVC055,0.00,0.00,VWS V14.01,2013-01-29 07:08:00,
2013-01-29 01:13:00,66.4,59.7,29.73,SSE,165,7.0,11.0,79,0.00,,OVC055,0.00,0.00,VWS V14.01,2013-01-29 07:13:00,
2013-01-29 01:18:00,66.4,59.3,29.73,South,180,2.0,11.0,78,0.00,,OVC055,0.00,0.00,VWS V14.01,2013-01-29 07:18:00,
2013-01-29 01:23:00,66.6,59.5,29.73,South,169,6.0,13.0,78,0.00,,OVC055,0.00,0.00,VWS V14.01,2013-01-29 07:23:00,
2013-01-29 01:28:00,66.6,59.2,29.73,SE,146,12.0,15.0,77,0.00,,OVC055,0.00,0.00,VWS V14.01,2013-01-29 07:28:00,
2013-01-29 01:33:00,66.8,59.4,29.73,SSE,162,3.0,11.0,77,0.00,,OVC055,0.00,0.00,VWS V14.01,2013-01-29 07:33:00,
2013-01-29 01:38:00,66.9,59.1,29.73,SSW,206,5.0,16.0,76,0.00,,OVC055,0.00,0.00,VWS V14.01,2013-01-29 07:38:00,
2013-01-29 01:43:00,66.9,59.1,29.73,SSW,194,7.0,16.0,76,0.00,,OVC055,0.00,0.00,VWS V14.01,2013-01-29 07:43:00,
2013-01-29 01:48:00,66.9,59.1,29.73,SSE,159,6.0,16.0,76,0.00,,OVC055,0.00,0.00,VWS V14.01,2013-01-29 07:48:00,
2013-01-29 01:53:00,66.9,59.1,29.73,South,169,7.0,16.0,76,0.00,,OVC055,0.00,0.00,VWS V14.01,2013-01-29 07:53:00,
2013-01-29 01:58:00,66.9,58.7,29.73,SSE,158,7.0,13.0,75,0.00,,OVC055,0.00,0.00,VWS V14.01,2013-01-29 07:58:00,
2013-01-29 02:03:00,66.9,58.7,29.72,SSW,204,13.0,13.0,75,0.00,,BKN050,0.00,0.00,VWS V14.01,2013-01-29 08:03:00,
2013-01-29 02:08:00,66.9,58.7,29.72,SSE,148,9.0,11.0,75,0.00,,BKN050,0.00,0.00,VWS V14.01,2013-01-29 08:08:00,
2013-01-29 02:13:00,66.8,58.6,29.72,SSE,165,2.0,12.0,75,0.00,,BKN050,0.00,0.00,VWS V14.01,2013-01-29 08:13:00,
2013-01-29 02:18:00,66.8,59.0,29.73,SSE,159,3.0,10.0,76,0.00,,BKN050,0.00,0.00,VWS V14.01,2013-01-29 08:18:00,
2013-01-29 02:23:00,66.8,59.0,29.73,SSE,155,7.0,14.0,76,0.00,,BKN050,0.00,0.00,VWS V14.01,2013-01-29 08:23:00,
2013-01-29 02:28:00,66.9,59.1,29.73,SSE,158,5.0,12.0,76,0.00,,BKN050,0.00,0.00,VWS V14.01,2013-01-29 08:28:00,
2013-01-29 02:33:00,66.9,58.7,29.73,South,177,4.0,17.0,75,0.00,,BKN050,0.00,0.00,VWS V14.01,2013-01-29 08:33:00,
2013-01-29 02:38:00,66.9,58.7,29.73,South,177,5.0,10.0,75,0.00,,BKN050,0.00,0.00,VWS V14.01,2013-01-29 08:38:00,
2013-01-29 02:43:00,66.8,59.0,29.73,South,182,6.0,12.0,76,0.00,,BKN050,0.00,0.00,VWS V14.01,2013-01-29 08:43:00,
2013-01-29 02:48:00,66.8,59.0,29.73,SSW,205,3.0,16.0,76,0.00,,BKN050,0.00,0.00,VWS V14.01,2013-01-29 08:48:00,
2013-01-29 02:53:00,66.6,58.8,29.73,SSE,166,6.0,11.0,76,0.00,,BKN050,0.00,0.00,VWS V14.01,2013-01-29 08:53:00,
2013-01-29 02:58:00,66.6,58.8,29.73,South,188,9.0,9.0,76,0.00,,BKN050,0.00,0.00,VWS V14.01,2013-01-29 08:58:00,
2013-01-29 03:03:00,66.4,58.6,29.73,SSW,196,0.0,5.0,76,0.00,,SCT050,0.00,0.00,VWS V14.01,2013-01-29 09:03:00,
2013-01-29 03:08:00,66.3,58.9,29.73,SE,146,3.0,13.0,77,0.00,,SCT050,0.00,0.00,VWS V14.01,2013-01-29 09:08:00,
2013-01-29 03:13:00,66.3,58.9,29.73,South,186,13.0,13.0,77,0.00,,SCT050,0.00,0.00,VWS V14.01,2013-01-29 09:13:00,
2013-01-29 03:18:00,66.3,58.9,29.72,SSE,165,4.0,14.0,77,0.00,,SCT050,0.00,0.00,VWS V14.01,2013-01-29 09:18:00,
2013-01-29 03:23:00,66.3,58.9,29.72,SSE,157,8.0,13.0,77,0.00,,SCT050,0.00,0.00,VWS V14.01,2013-01-29 09:23:00,
2013-01-29 03:28:00,66.3,58.9,29.72,South,184,6.0,11.0,77,0.00,,SCT050,0.00,0.00,VWS V14.01,2013-01-29 09:28:00,
2013-01-29 03:33:00,66.3,58.9,29.72,South,184,10.0,15.0,77,0.00,,SCT050,0.00,0.00,VWS V14.01,2013-01-29 09:33:00,
2013-01-29 03:38:00,66.3,58.9,29.72,South,176,6.0,11.0,77,0.00,,SCT050,0.00,0.00,VWS V14.01,2013-01-29 09:38:00,
2013-01-29 03:43:00,66.3,58.9,29.72,SSE,167,4.0,9.0,77,0.00,,SCT050,0.00,0.00,VWS V14.01,2013-01-29 09:43:00,
2013-01-29 03:48:00,66.1,58.7,29.71,SSE,153,9.0,12.0,77,0.00,,SCT050,0.00,0.00,VWS V14.01,2013-01-29 09:48:00,
2013-01-29 03:53:00,66.1,58.7,29.71,SSE,157,2.0,15.0,77,0.00,,SCT050,0.00,0.00,VWS V14.01,2013-01-29 09:53:00,
2013-01-29 03:58:00,66.1,58.7,29.71,SSE,167,6.0,13.0,77,0.00,,SCT050,0.00,0.00,VWS V14.01,2013-01-29 09:58:00,
2013-01-29 04:03:00,65.9,58.9,29.70,SSE,161,4.0,12.0,78,0.00,,SCT060,0.00,0.00,VWS V14.01,2013-01-29 10:03:00,
2013-01-29 04:08:00,65.9,58.9,29.70,South,178,3.0,9.0,78,0.00,,SCT060,0.00,0.00,VWS V14.01,2013-01-29 10:08:00,
2013-01-29 04:13:00,65.9,58.9,29.70,SSE,149,7.0,11.0,78,0.00,,SCT060,0.00,0.00,VWS V14.01,2013-01-29 10:13:00,
2013-01-29 04:18:00,65.9,59.2,29.70,South,183,0.0,12.0,79,0.00,,SCT060,0.00,0.00,VWS V14.01,2013-01-29 10:18:00,
2013-01-29 04:23:00,65.9,59.2,29.70,South,182,1.0,10.0,79,0.00,,SCT060,0.00,0.00,VWS V14.01,2013-01-29 10:23:00,
2013-01-29 04:28:00,65.9,59.2,29.70,South,172,4.0,16.0,79,0.00,,SCT060,0.00,0.00,VWS V14.01,2013-01-29 10:28:00,
2013-01-29 04:33:00,65.9,59.2,29.70,SSE,163,6.0,11.0,79,0.00,,SCT060,0.00,0.00,VWS V14.01,2013-01-29 10:33:00,
2013-01-29 04:38:00,65.9,59.2,29.70,South,169,6.0,11.0,79,0.00,,SCT060,0.00,0.00,VWS V14.01,2013-01-29 10:38:00,
2013-01-29 04:43:00,65.9,59.2,29.70,South,177,5.0,11.0,79,0.00,,SCT060,0.00,0.00,VWS V14.01,2013-01-29 10:43:00,
2013-01-29 04:48:00,65.8,59.5,29.69,SSE,149,12.0,12.0,80,0.00,,SCT060,0.00,0.00,VWS V14.01,2013-01-29 10:48:00,
2013-01-29 04:52:00,65.8,59.5,29.69,SSW,194,11.0,11.0,80,0.00,,SCT060,0.00,0.00,VWS V14.01,2013-01-29 10:52:00,
2013-01-29 04:57:00,65.8,59.5,29.69,South,176,5.0,12.0,80,0.00,,SCT060,0.00,0.00,VWS V14.01,2013-01-29 10:57:00,
2013-01-29 05:03:00,65.6,59.6,29.69,South,173,10.0,13.0,81,0.00,,CLR,0.00,0.00,VWS V14.01,2013-01-29 11:03:00,
2013-01-29 05:07:00,65.6,59.6,29.69,SSW,196,10.0,16.0,81,0.00,,CLR,0.00,0.00,VWS V14.01,2013-01-29 11:07:00,
2013-01-29 05:12:00,65.6,59.6,29.69,SSW,193,5.0,11.0,81,0.00,,CLR,0.00,0.00,VWS V14.01,2013-01-29 11:12:00,
2013-01-29 05:17:00,65.4,59.4,29.68,South,178,0.0,13.0,81,0.00,,CLR,0.00,0.00,VWS V14.01,2013-01-29 11:17:00,
2013-01-29 05:23:00,65.4,59.8,29.68,SSW,194,9.0,9.0,82,0.00,,CLR,0.00,0.00,VWS V14.01,2013-01-29 11:23:00,
2013-01-29 05:28:00,65.3,59.7,29.68,SSE,165,12.0,12.0,82,0.00,,CLR,0.00,0.00,VWS V14.01,2013-01-29 11:28:00,
2013-01-29 05:33:00,65.3,59.7,29.67,SSE,163,7.0,9.0,82,0.00,,CLR,0.00,0.00,VWS V14.01,2013-01-29 11:33:00,
2013-01-29 05:38:00,65.3,60.0,29.67,SSW,202,5.0,7.0,83,0.00,,CLR,0.00,0.00,VWS V14.01,2013-01-29 11:38:00,
2013-01-29 05:42:00,65.3,60.0,29.67,SSE,164,0.0,7.0,83,0.00,,CLR,0.00,0.00,VWS V14.01,2013-01-29 11:42:00,
2013-01-29 05:47:00,65.3,60.0,29.67,South,188,9.0,15.0,83,0.00,,CLR,0.00,0.00,VWS V14.01,2013-01-29 11:47:00,
2013-01-29 05:52:00,65.3,60.0,29.67,SSE,161,12.0,12.0,83,0.00,,CLR,0.00,0.00,VWS V14.01,2013-01-29 11:52:00,
2013-01-29 05:57:00,65.3,60.0,29.67,South,184,4.0,10.0,83,0.00,,CLR,0.00,0.00,VWS V14.01,2013-01-29 11:57:00,
2013-01-29 06:02:00,65.3,60.3,29.65,South,178,11.0,14.0,84,0.00,,CLR,0.00,0.00,VWS V14.01,2013-01-29 12:02:00,
2013-01-29 06:07:00,65.1,60.2,29.65,South,174,5.0,11.0,84,0.00,,CLR,0.00,0.00,VWS V14.01,2013-01-29 12:07:00,
2013-01-29 06:12:00,65.1,60.2,29.65,South,188,13.0,15.0,84,0.00,,CLR,0.00,0.00,VWS V14.01,2013-01-29 12:12:00,
2013-01-29 06:17:00,65.1,60.2,29.65,South,181,9.0,10.0,84,0.00,,CLR,0.00,0.00,VWS V14.01,2013-01-29 12:17:00,
2013-01-29 06:22:00,65.1,60.5,29.65,SSE,163,6.0,10.0,85,0.00,,CLR,0.00,0.00,VWS V14.01,2013-01-29 12:22:00,
2013-01-29 06:27:00,65.1,60.5,29.65,South,169,6.0,11.0,85,0.00,,CLR,0.00,0.00,VWS V14.01,2013-01-29 12:27:00,
2013-01-29 06:32:00,64.9,60.3,29.65,SSE,152,5.0,10.0,85,0.00,,CLR,0.00,0.00,VWS V14.01,2013-01-29 12:32:00,
2013-01-29 06:37:00,64.9,60.3,29.65,South,178,10.0,15.0,85,0.00,,CLR,0.00,0.00,VWS V14.01,2013-01-29 12:37:00,
2013-01-29 06:42:00,65.1,60.5,29.65,SSE,167,9.0,16.0,85,0.00,,CLR,0.00,0.00,VWS V14.01,2013-01-29 12:42:00,
2013-01-29 06:47:00,65.3,60.7,29.63,South,176,6.0,18.0,85,0.00,,CLR,0.00,0.00,VWS V14.01,2013-01-29 12:47:00,
2013-01-29 06:52:00,65.3,60.7,29.63,SSW,195,5.0,14.0,85,0.00,,CLR,0.00,0.00,VWS V14.01,2013-01-29 12:52:00,
2013-01-29 06:57:00,65.3,60.7,29.63,South,181,10.0,16.0,85,0.00,,CLR,0.00,0.00,VWS V14.01,2013-01-29 12:57:00,
2013-01-29 07:02:00,65.4,60.8,29.64,South,185,16.0,17.0,85,0.00,,CLR,0.00,0.00,VWS V14.01,2013-01-29 13:02:00,
2013-01-29 07:07:00,65.6,61.0,29.64,SW,215,3.0,15.0,85,0.00,,CLR,0.00,0.00,VWS V14.01,2013-01-29 13:07:00,
2013-01-29 07:12:00,65.8,61.2,29.64,South,180,10.0,15.0,85,0.00,,CLR,0.00,0.00,VWS V14.01,2013-01-29 13:12:00,
2013-01-29 07:17:00,65.9,61.3,29.63,SE,142,12.0,12.0,85,0.00,,CLR,0.00,0.00,VWS V14.01,2013-01-29 13:17:00,
2013-01-29 07:22:00,65.9,60.9,29.63,SE,134,14.0,14.0,84,0.00,,CLR,0.00,0.00,VWS V14.01,2013-01-29 13:22:00,
2013-01-29 07:27:00,65.9,60.9,29.63,SSE,147,6.0,12.0,84,0.00,,CLR,0.00,0.00,VWS V14.01,2013-01-29 13:27:00,
2013-01-29 07:32:00,65.9,60.9,29.62,SSW,202,5.0,17.0,84,0.00,,CLR,0.00,0.00,VWS V14.01,2013-01-29 13:32:00,
2013-01-29 07:37:00,65.9,60.9,29.62,SSE,165,9.0,13.0,84,0.00,,CLR,0.00,5.75,VWS V14.01,2013-01-29 13:37:00,
2013-01-29 07:42:00,65.9,60.9,29.62,SSE,168,7.0,21.0,84,0.00,,CLR,0.00,12.65,VWS V14.01,2013-01-29 13:42:00,
2013-01-29 07:47:00,66.1,61.1,29.62,SSW,196,9.0,18.0,84,0.00,,CLR,0.00,13.80,VWS V14.01,2013-01-29 13:47:00,
2013-01-29 07:52:00,66.1,61.1,29.62,South,188,10.0,13.0,84,0.00,,CLR,0.00,18.40,VWS V14.01,2013-01-29 13:52:00,
2013-01-29 07:57:00,66.3,61.3,29.62,SSE,160,6.0,14.0,84,0.00,,CLR,0.00,24.15,VWS V14.01,2013-01-29 13:57:00,
2013-01-29 08:02:00,66.3,61.3,29.61,SSE,163,13.0,13.0,84,0.00,,BKN065,0.00,20.70,VWS V14.01,2013-01-29 14:02:00,
2013-01-29 08:07:00,66.4,61.4,29.61,South,171,5.0,17.0,84,0.00,,BKN065,0.00,20.70,VWS V14.01,2013-01-29 14:07:00,
2013-01-29 08:12:00,66.6,61.3,29.61,SSE,161,4.0,15.0,83,0.00,,BKN065,0.00,21.85,VWS V14.01,2013-01-29 14:12:00,
2013-01-29 08:17:00,66.6,61.3,29.60,SSW,205,4.0,14.0,83,0.00,,BKN065,0.00,26.45,VWS V14.01,2013-01-29 14:17:00,
2013-01-29 08:22:00,66.8,61.5,29.60,South,190,14.0,14.0,83,0.00,,BKN065,0.00,36.80,VWS V14.01,2013-01-29 14:22:00,
2013-01-29 08:27:00,66.9,61.6,29.60,South,178,13.0,19.0,83,0.00,,BKN065,0.00,36.80,VWS V14.01,2013-01-29 14:27:00,
2013-01-29 08:32:00,67.1,61.4,29.60,SSW,192,19.0,19.0,82,0.00,,BKN065,0.00,21.85,VWS V14.01,2013-01-29 14:32:00,
2013-01-29 08:37:00,67.1,61.4,29.60,SSE,161,10.0,18.0,82,0.00,,BKN065,0.00,24.15,VWS V14.01,2013-01-29 14:37:00,
2013-01-29 08:42:00,67.3,61.6,29.60,South,184,4.0,21.0,82,0.00,,BKN065,0.00,42.55,VWS V14.01,2013-01-29 14:42:00,
2013-01-29 08:47:00,67.4,61.7,29.59,SSW,203,11.0,17.0,82,0.00,,BKN065,0.00,52.90,VWS V14.01,2013-01-29 14:47:00,
2013-01-29 08:52:00,67.4,61.4,29.59,South,180,1.0,14.0,81,0.00,,BKN065,0.00,46.00,VWS V14.01,2013-01-29 14:52:00,
2013-01-29 08:57:00,67.6,61.6,29.59,South,172,4.0,21.0,81,0.00,,BKN065,0.00,46.00,VWS V14.01,2013-01-29 14:57:00,
2013-01-29 09:02:00,67.6,61.6,29.59,SSE,162,5.0,15.0,81,0.00,,BKN060,0.00,56.35,VWS V14.01,2013-01-29 15:02:00,
2013-01-29 09:07:00,67.8,61.8,29.59,South,182,6.0,12.0,81,0.00,,BKN060,0.00,64.40,VWS V14.01,2013-01-29 15:07:00,
2013-01-29 09:12:00,67.9,61.9,29.59,South,190,5.0,16.0,81,0.00,,BKN060,0.00,106.95,VWS V14.01,2013-01-29 15:12:00,
2013-01-29 09:17:00,68.1,62.1,29.58,South,169,5.0,12.0,81,0.00,,BKN060,0.00,96.60,VWS V14.01,2013-01-29 15:17:00,
2013-01-29 09:22:00,68.3,61.9,29.58,SSE,167,7.0,19.0,80,0.00,,BKN060,0.00,79.35,VWS V14.01,2013-01-29 15:22:00,
2013-01-29 09:27:00,68.4,62.0,29.58,South,175,12.0,13.0,80,0.00,,BKN060,0.00,52.90,VWS V14.01,2013-01-29 15:27:00,
2013-01-29 09:32:00,68.4,61.6,29.57,South,180,23.0,23.0,79,0.00,,BKN060,0.00,48.30,VWS V14.01,2013-01-29 15:32:00,
2013-01-29 09:37:00,68.6,61.8,29.57,South,174,3.0,14.0,79,0.00,,BKN060,0.00,54.05,VWS V14.01,2013-01-29 15:37:00,
2013-01-29 09:42:00,68.6,61.8,29.57,South,175,8.0,13.0,79,0.00,,BKN060,0.00,120.75,VWS V14.01,2013-01-29 15:42:00,
2013-01-29 09:47:00,68.8,62.0,29.57,SSE,150,10.0,22.0,79,0.00,,BKN060,0.00,112.70,VWS V14.01,2013-01-29 15:47:00,
2013-01-29 09:52:00,68.8,62.0,29.57,South,189,10.0,16.0,79,0.00,,BKN060,0.00,109.25,VWS V14.01,2013-01-29 15:52:00,
2013-01-29 09:57:00,68.9,62.1,29.57,South,185,16.0,19.0,79,0.00,,BKN060,0.00,127.65,VWS V14.01,2013-01-29 15:57:00,
2013-01-29 10:02:00,69.1,62.0,29.55,South,184,5.0,14.0,78,0.00,,BKN075,0.00,117.30,VWS V14.01,2013-01-29 16:02:00,
2013-01-29 10:07:00,69.3,62.2,29.55,South,185,18.0,21.0,78,0.00,,BKN075,0.00,117.30,VWS V14.01,2013-01-29 16:07:00,
2013-01-29 10:12:00,69.4,62.2,29.55,SSW,192,7.0,18.0,78,0.00,,BKN075,0.00,181.70,VWS V14.01,2013-01-29 16:12:00,
2013-01-29 10:17:00,70.0,62.5,29.55,South,182,10.0,22.0,77,0.00,,BKN075,0.00,238.05,VWS V14.01,2013-01-29 16:17:00,
2013-01-29 10:22:00,70.1,62.6,29.55,SSE,156,13.0,21.0,77,0.00,,BKN075,0.00,143.75,VWS V14.01,2013-01-29 16:22:00,
2013-01-29 10:27:00,70.1,62.6,29.55,South,173,13.0,20.0,77,0.00,,BKN075,0.00,129.95,VWS V14.01,2013-01-29 16:27:00,
2013-01-29 10:32:00,70.1,62.6,29.54,South,175,4.0,19.0,77,0.00,,BKN075,0.00,212.75,VWS V14.01,2013-01-29 16:32:00,
2013-01-29 10:37:00,70.3,62.4,29.54,SW,214,5.0,17.0,76,0.00,,BKN075,0.00,141.45,VWS V14.01,2013-01-29 16:37:00,
2013-01-29 10:42:00,70.5,62.6,29.54,South,186,16.0,16.0,76,0.00,,BKN075,0.00,90.85,VWS V14.01,2013-01-29 16:42:00,
2013-01-29 10:47:00,70.3,62.4,29.55,South,183,3.0,13.0,76,0.00,,BKN075,0.00,54.05,VWS V14.01,2013-01-29 16:47:00,
2013-01-29 10:52:00,70.3,62.4,29.55,SSW,200,13.0,13.0,76,0.00,,BKN075,0.00,54.05,VWS V14.01,2013-01-29 16:52:00,
2013-01-29 10:57:00,70.1,62.2,29.55,West,259,5.0,9.0,76,0.00,,BKN075,0.00,34.50,VWS V14.01,2013-01-29 16:57:00,
2013-01-29 11:02:00,67.6,55.8,29.59,NW,311,6.0,18.0,66,0.00,,OVC028,0.00,5.75,VWS V14.01,2013-01-29 17:02:00,
2013-01-29 11:07:00,63.8,52.2,29.59,North,355,10.0,14.0,66,0.00,,OVC028,0.00,5.75,VWS V14.01,2013-01-29 17:07:00,
2013-01-29 11:12:00,60.8,51.3,29.59,North,355,7.0,16.0,71,0.00,,OVC028,0.00,0.00,VWS V14.01,2013-01-29 17:12:00,
2013-01-29 11:17:00,59.2,51.3,29.57,NW,306,9.0,14.0,75,0.00,,OVC028,0.00,5.75,VWS V14.01,2013-01-29 17:17:00,
2013-01-29 11:22:00,58.1,50.9,29.57,NW,326,9.0,9.0,77,0.00,,OVC028,0.00,8.05,VWS V14.01,2013-01-29 17:22:00,
2013-01-29 11:27:00,57.7,51.2,29.57,North,5,1.0,2.0,79,0.00,,OVC028,0.00,12.65,VWS V14.01,2013-01-29 17:27:00,
2013-01-29 11:32:00,57.2,51.1,29.55,NNE,14,7.0,11.0,80,0.00,,OVC028,0.00,21.85,VWS V14.01,2013-01-29 17:32:00,
2013-01-29 11:37:00,57.1,51.7,29.55,North,360,6.0,7.0,82,0.02,,OVC028,0.02,42.55,VWS V14.01,2013-01-29 17:37:00,
2013-01-29 11:42:00,56.8,52.0,29.55,North,355,0.0,6.0,84,0.02,,OVC028,0.02,10.35,VWS V14.01,2013-01-29 17:42:00,
2013-01-29 11:47:00,56.6,52.2,29.52,NNE,15,0.0,0.0,85,0.03,,OVC028,0.03,16.10,VWS V14.01,2013-01-29 17:47:00,
2013-01-29 11:52:00,56.3,52.2,29.52,NNE,32,0.0,0.0,86,0.03,,OVC028,0.03,10.35,VWS V14.01,2013-01-29 17:52:00,
2013-01-29 11:57:00,56.1,52.3,29.52,NNE,32,0.0,0.0,87,0.04,,OVC028,0.04,21.85,VWS V14.01,2013-01-29 17:57:00,
2013-01-29 12:02:00,56.0,52.2,29.54,North,9,0.0,0.0,87,0.10,, +RA,0.10,24.15,VWS V14.01,2013-01-29 18:02:00,
2013-01-29 12:07:00,55.7,52.2,29.54,North,5,0.0,0.0,88,0.19,, +RA,0.19,28.75,VWS V14.01,2013-01-29 18:07:00,
2013-01-29 12:12:00,55.4,52.2,29.54,NNW,327,0.0,0.0,89,0.26,, +RA,0.26,20.70,VWS V14.01,2013-01-29 18:12:00,
2013-01-29 12:17:00,55.2,52.3,29.51,NNW,344,0.0,0.0,90,0.34,, +RA,0.34,12.65,VWS V14.01,2013-01-29 18:17:00,
2013-01-29 12:22:00,55.1,52.5,29.51,NNW,344,0.0,0.0,91,0.47,, +RA,0.47,12.65,VWS V14.01,2013-01-29 18:22:00,
2013-01-29 12:27:00,55.0,52.4,29.51,North,349,0.0,0.0,91,0.59,, +RA,0.59,21.85,VWS V14.01,2013-01-29 18:27:00,
2013-01-29 12:32:00,54.8,52.2,29.52,North,349,0.0,0.0,91,0.67,, +RA,0.67,21.85,VWS V14.01,2013-01-29 18:32:00,
2013-01-29 12:37:00,54.7,52.4,29.52,NNE,13,0.0,0.0,92,0.70,, +RA,0.71,18.40,VWS V14.01,2013-01-29 18:37:00,
2013-01-29 12:42:00,54.7,52.4,29.52,ENE,59,0.0,0.0,92,0.76,, +RA,0.78,21.85,VWS V14.01,2013-01-29 18:42:00,
2013-01-29 12:47:00,54.5,52.5,29.52,ENE,59,0.0,0.0,93,0.78,, +RA,0.81,40.25,VWS V14.01,2013-01-29 18:47:00,
2013-01-29 12:52:00,54.5,52.5,29.52,ENE,58,0.0,0.0,93,0.80,, +RA,0.83,20.70,VWS V14.01,2013-01-29 18:52:00,
2013-01-29 12:57:00,54.4,52.4,29.52,ENE,58,0.0,0.0,93,0.81,, +RA,0.84,66.70,VWS V14.01,2013-01-29 18:57:00,
2013-01-29 13:02:00,54.5,52.5,29.50,NE,55,0.0,0.0,93,0.78,,RA,0.88,120.75,VWS V14.01,2013-01-29 19:02:00,
2013-01-29 13:07:00,54.5,52.5,29.50,NE,46,0.0,0.0,93,0.71,,RA,0.89,44.85,VWS V14.01,2013-01-29 19:07:00,
2013-01-29 13:12:00,54.4,52.4,29.50,NE,46,0.0,0.0,93,0.66,,RA,0.89,56.35,VWS V14.01,2013-01-29 19:12:00,
2013-01-29 13:17:00,54.4,52.4,29.49,NE,48,0.0,0.0,93,0.59,,RA,0.91,64.40,VWS V14.01,2013-01-29 19:17:00,
2013-01-29 13:22:00,54.2,52.5,29.49,NE,48,0.0,0.0,94,0.49,,RA,0.92,52.90,VWS V14.01,2013-01-29 19:22:00,
2013-01-29 13:27:00,54.2,52.5,29.49,NE,48,0.0,0.0,94,0.36,,RA,0.93,29.90,VWS V14.01,2013-01-29 19:27:00,
2013-01-29 13:32:00,54.1,52.4,29.46,NE,48,0.0,0.0,94,0.27,,RA,0.93,29.90,VWS V14.01,2013-01-29 19:32:00,
2013-01-29 13:37:00,53.9,52.2,29.46,ENE,62,0.0,0.0,94,0.24,,RA,0.94,18.40,VWS V14.01,2013-01-29 19:37:00,
2013-01-29 13:42:00,53.9,52.2,29.46,ENE,61,0.0,0.0,94,0.23,,RA,0.98,40.25,VWS V14.01,2013-01-29 19:42:00,
2013-01-29 13:47:00,53.8,52.1,29.49,ENE,62,0.0,0.0,94,0.20,,RA,1.01,54.05,VWS V14.01,2013-01-29 19:47:00,
2013-01-29 13:52:00,53.6,51.9,29.49,ENE,62,0.0,0.0,94,0.19,,RA,1.02,101.20,VWS V14.01,2013-01-29 19:52:00,
2013-01-29 13:57:00,53.8,52.4,29.49,ENE,62,0.0,0.0,95,0.19,,RA,1.03,202.40,VWS V14.01,2013-01-29 19:57:00,
2013-01-29 14:02:00,53.9,52.5,29.47,ENE,62,0.0,0.0,95,0.17,,-RA,1.04,115.00,VWS V14.01,2013-01-29 20:02:00,
2013-01-29 14:07:00,54.1,52.7,29.47,ENE,62,0.0,0.0,95,0.15,,-RA,1.04,60.95,VWS V14.01,2013-01-29 20:07:00,
2013-01-29 14:12:00,53.9,52.5,29.47,ENE,62,0.0,0.0,95,0.15,,-RA,1.04,62.10,VWS V14.01,2013-01-29 20:12:00,
2013-01-29 14:17:00,53.8,52.4,29.49,ENE,61,0.0,0.0,95,0.13,,-RA,1.04,101.20,VWS V14.01,2013-01-29 20:17:00,
2013-01-29 14:22:00,53.8,52.4,29.49,ENE,61,0.0,0.0,95,0.13,,-RA,1.05,85.10,VWS V14.01,2013-01-29 20:22:00,
2013-01-29 14:27:00,53.8,52.4,29.49,ENE,61,0.0,0.0,95,0.12,,-RA,1.05,48.30,VWS V14.01,2013-01-29 20:27:00,
2013-01-29 14:32:00,53.8,52.4,29.48,ENE,61,0.0,0.0,95,0.13,,-RA,1.06,29.90,VWS V14.01,2013-01-29 20:32:00,
2013-01-29 14:37:00,53.8,52.4,29.48,ENE,61,0.0,0.0,95,0.12,,-RA,1.06,48.30,VWS V14.01,2013-01-29 20:37:00,
2013-01-29 14:42:00,53.9,52.5,29.48,ENE,61,0.0,0.0,95,0.09,,-RA,1.06,52.90,VWS V14.01,2013-01-29 20:42:00,
2013-01-29 14:47:00,53.9,52.5,29.47,ENE,61,0.0,0.0,95,0.05,,-RA,1.06,21.85,VWS V14.01,2013-01-29 20:47:00,
2013-01-29 14:52:00,53.9,52.5,29.47,ENE,61,0.0,0.0,95,0.04,,-RA,1.06,28.75,VWS V14.01,2013-01-29 20:52:00,
2013-01-29 14:57:00,53.9,52.5,29.47,ENE,61,0.0,0.0,95,0.03,,-RA,1.06,64.40,VWS V14.01,2013-01-29 20:57:00,
2013-01-29 15:02:00,53.9,52.5,29.46,ENE,61,0.0,0.0,95,0.02,,,1.06,56.35,VWS V14.01,2013-01-29 21:02:00,
2013-01-29 15:06:00,53.9,52.5,29.46,ENE,61,0.0,0.0,95,0.02,,,1.06,37.95,VWS V14.01,2013-01-29 21:06:00,
2013-01-29 15:11:00,53.9,52.5,29.46,ENE,63,0.0,0.0,95,0.02,,,1.06,42.55,VWS V14.01,2013-01-29 21:11:00,
2013-01-29 15:17:00,53.9,52.5,29.45,ENE,63,0.0,0.0,95,0.02,,,1.06,62.10,VWS V14.01,2013-01-29 21:17:00,
2013-01-29 15:22:00,53.9,52.8,29.45,ENE,63,0.0,0.0,96,0.01,,,1.06,29.90,VWS V14.01,2013-01-29 21:22:00,
2013-01-29 15:27:00,53.9,52.8,29.45,ENE,63,0.0,0.0,96,0.01,,,1.06,26.45,VWS V14.01,2013-01-29 21:27:00,
2013-01-29 15:32:00,53.9,52.8,29.46,ENE,78,0.0,0.0,96,0.01,,,1.07,21.85,VWS V14.01,2013-01-29 21:32:00,
2013-01-29 15:37:00,53.8,52.7,29.46,ENE,78,0.0,0.0,96,0.01,,,1.07,21.85,VWS V14.01,2013-01-29 21:37:00,
2013-01-29 15:42:00,53.8,52.7,29.46,East,79,0.0,0.0,96,0.01,,,1.07,24.15,VWS V14.01,2013-01-29 21:42:00,
2013-01-29 15:47:00,53.9,52.8,29.47,East,94,0.0,0.0,96,0.02,,,1.08,21.85,VWS V14.01,2013-01-29 21:47:00,
2013-01-29 15:52:00,53.9,52.8,29.47,East,95,0.0,0.0,96,0.03,,,1.09,21.85,VWS V14.01,2013-01-29 21:52:00,
2013-01-29 15:57:00,53.9,52.8,29.47,ESE,116,0.0,0.0,96,0.05,,,1.11,16.10,VWS V14.01,2013-01-29 21:57:00,
2013-01-29 16:02:00,53.9,52.8,29.48,ESE,117,0.0,0.0,96,0.06,,-RA,1.12,13.80,VWS V14.01,2013-01-29 22:02:00,
2013-01-29 16:07:00,54.1,53.0,29.48,ESE,116,0.0,0.0,96,0.07,,-RA,1.13,24.15,VWS V14.01,2013-01-29 22:07:00,
2013-01-29 16:12:00,54.1,53.0,29.48,ESE,115,0.0,0.0,96,0.08,,-RA,1.14,28.75,VWS V14.01,2013-01-29 22:12:00,
2013-01-29 16:17:00,54.1,53.0,29.45,ESE,103,0.0,0.0,96,0.09,,-RA,1.15,18.40,VWS V14.01,2013-01-29 22:17:00,
2013-01-29 16:22:00,54.1,53.0,29.45,ESE,103,0.0,0.0,96,0.10,,-RA,1.16,16.10,VWS V14.01,2013-01-29 22:22:00,
2013-01-29 16:27:00,54.1,53.0,29.45,East,98,0.0,0.0,96,0.10,,-RA,1.16,12.65,VWS V14.01,2013-01-29 22:27:00,
2013-01-29 16:32:00,54.1,53.0,29.43,East,99,0.0,0.0,96,0.10,,-RA,1.17,12.65,VWS V14.01,2013-01-29 22:32:00,
2013-01-29 16:37:00,53.9,52.8,29.43,East,99,0.0,0.0,96,0.10,,-RA,1.17,10.35,VWS V14.01,2013-01-29 22:37:00,
2013-01-29 16:42:00,53.9,52.8,29.43,SE,146,0.0,0.0,96,0.10,,-RA,1.17,8.05,VWS V14.01,2013-01-29 22:42:00,
2013-01-29 16:47:00,53.9,52.8,29.47,South,184,0.0,0.0,96,0.09,,-RA,1.17,0.00,VWS V14.01,2013-01-29 22:47:00,
2013-01-29 16:52:00,53.9,52.8,29.47,South,190,0.0,0.0,96,0.08,,-RA,1.17,0.00,VWS V14.01,2013-01-29 22:52:00,
2013-01-29 16:57:00,53.9,52.8,29.47,South,190,0.0,0.0,96,0.08,,-RA,1.18,0.00,VWS V14.01,2013-01-29 22:57:00,
2013-01-29 17:02:00,53.9,52.8,29.48,South,190,0.0,0.0,96,0.07,,-RA,1.18,0.00,VWS V14.01,2013-01-29 23:02:00,
2013-01-29 17:07:00,53.9,52.8,29.48,South,190,0.0,0.0,96,0.05,,-RA,1.18,0.00,VWS V14.01,2013-01-29 23:07:00,
2013-01-29 17:12:00,53.9,52.8,29.48,South,186,0.0,0.0,96,0.04,,-RA,1.18,0.00,VWS V14.01,2013-01-29 23:12:00,
2013-01-29 17:17:00,53.8,52.7,29.44,South,186,0.0,0.0,96,0.03,,-RA,1.18,0.00,VWS V14.01,2013-01-29 23:17:00,
2013-01-29 17:22:00,53.8,52.7,29.44,SSE,160,0.0,0.0,96,0.03,,-RA,1.18,0.00,VWS V14.01,2013-01-29 23:22:00,
2013-01-29 17:27:00,53.8,52.7,29.44,West,261,0.0,0.0,96,0.03,,-RA,1.19,0.00,VWS V14.01,2013-01-29 23:27:00,
2013-01-29 17:32:00,53.9,52.8,29.48,West,265,0.0,0.0,96,0.03,,-RA,1.19,0.00,VWS V14.01,2013-01-29 23:32:00,
2013-01-29 17:37:00,53.9,52.8,29.48,West,265,0.0,0.0,96,0.02,,-RA,1.19,0.00,VWS V14.01,2013-01-29 23:37:00,
2013-01-29 17:42:00,53.9,53.1,29.48,West,265,0.0,0.0,97,0.02,,-RA,1.19,0.00,VWS V14.01,2013-01-29 23:42:00,
2013-01-29 17:47:00,53.9,53.1,29.49,West,265,0.0,0.0,97,0.02,,-RA,1.19,0.00,VWS V14.01,2013-01-29 23:47:00,
2013-01-29 17:52:00,53.9,53.1,29.49,West,270,13.0,20.0,97,0.02,,-RA,1.19,0.00,VWS V14.01,2013-01-29 23:52:00,
2013-01-29 17:57:00,53.5,52.4,29.49,NW,305,2.0,6.0,96,0.01,,-RA,1.19,0.00,VWS V14.01,2013-01-29 23:57:00,
2013-01-29 18:02:00,52.6,51.5,29.52,NW,319,12.0,14.0,96,0.01,,,1.19,0.00,VWS V14.01,2013-01-30 00:02:00,
2013-01-29 18:07:00,50.7,49.0,29.52,North,360,10.0,12.0,94,0.01,,,1.19,0.00,VWS V14.01,2013-01-30 00:07:00,
2013-01-29 18:12:00,49.3,47.9,29.52,WNW,288,7.0,12.0,95,0.01,,,1.19,0.00,VWS V14.01,2013-01-30 00:12:00,
2013-01-29 18:17:00,48.4,47.0,29.51,NNW,337,13.0,16.0,95,0.01,,,1.19,0.00,VWS V14.01,2013-01-30 00:17:00,
2013-01-29 18:22:00,47.9,46.5,29.51,NW,310,10.0,15.0,95,0.01,,,1.19,0.00,VWS V14.01,2013-01-30 00:22:00,
2013-01-29 18:27:00,47.4,46.0,29.51,WNW,295,6.0,6.0,95,0.00,,,1.19,0.00,VWS V14.01,2013-01-30 00:27:00,
2013-01-29 18:32:00,47.1,45.7,29.51,North,350,4.0,11.0,95,0.00,,,1.19,0.00,VWS V14.01,2013-01-30 00:32:00,
2013-01-29 18:37:00,46.7,45.3,29.51,NNW,348,5.0,10.0,95,0.00,,,1.19,0.00,VWS V14.01,2013-01-30 00:37:00,
2013-01-29 18:42:00,46.4,45.0,29.51,NW,321,7.0,15.0,95,0.00,,,1.19,0.00,VWS V14.01,2013-01-30 00:42:00,
2013-01-29 18:47:00,46.2,44.8,29.53,NNW,329,4.0,8.0,95,0.00,,,1.19,0.00,VWS V14.01,2013-01-30 00:47:00,
2013-01-29 18:52:00,46.1,44.8,29.53,NNW,340,4.0,11.0,95,0.00,,,1.19,0.00,VWS V14.01,2013-01-30 00:52:00,
2013-01-29 18:56:00,45.9,44.5,29.53,NW,324,12.0,12.0,95,0.00,,,1.19,0.00,VWS V14.01,2013-01-30 00:56:00,
2013-01-29 19:01:00,45.9,44.5,29.55,NNW,336,7.0,11.0,95,0.00,,OVC005,1.19,0.00,VWS V14.01,2013-01-30 01:01:00,
2013-01-29 19:06:00,45.8,44.5,29.55,NW,320,8.0,8.0,95,0.00,,OVC005,1.19,0.00,VWS V14.01,2013-01-30 01:06:00,
2013-01-29 19:11:00,45.8,44.5,29.55,NW,324,6.0,9.0,95,0.00,,OVC005,1.19,0.00,VWS V14.01,2013-01-30 01:11:00,
2013-01-29 19:16:00,45.8,44.5,29.55,NW,310,5.0,5.0,95,0.00,,OVC005,1.19,0.00,VWS V14.01,2013-01-30 01:16:00,
2013-01-29 19:21:00,45.6,44.2,29.55,NW,317,7.0,10.0,95,0.00,,OVC005,1.19,0.00,VWS V14.01,2013-01-30 01:21:00,
2013-01-29 19:26:00,45.6,44.2,29.55,North,5,8.0,9.0,95,0.00,,OVC005,1.19,0.00,VWS V14.01,2013-01-30 01:26:00,
2013-01-29 19:31:00,45.5,44.2,29.55,NNW,336,4.0,5.0,95,0.00,,OVC005,1.19,0.00,VWS V14.01,2013-01-30 01:31:00,
2013-01-29 19:36:00,45.3,44.0,29.55,NW,323,3.0,11.0,95,0.00,,OVC005,1.19,0.00,VWS V14.01,2013-01-30 01:36:00,
2013-01-29 19:41:00,45.3,44.0,29.55,NW,313,0.0,0.0,95,0.00,,OVC005,1.19,0.00,VWS V14.01,2013-01-30 01:41:00,
2013-01-29 19:46:00,45.3,44.0,29.58,NW,312,0.0,0.0,95,0.00,,OVC005,1.19,0.00,VWS V14.01,2013-01-30 01:46:00,
2013-01-29 19:51:00,45.3,44.0,29.58,WNW,300,0.0,0.0,95,0.00,,OVC005,1.19,0.00,VWS V14.01,2013-01-30 01:51:00,
2013-01-29 19:56:00,45.3,44.0,29.58,WNW,303,0.0,0.0,95,0.00,,OVC005,1.19,0.00,VWS V14.01,2013-01-30 01:56:00,
2013-01-29 20:01:00,45.3,44.0,29.61,NW,305,0.0,0.0,95,0.00,,OVC008,1.19,0.00,VWS V14.01,2013-01-30 02:01:00,
2013-01-29 20:06:00,45.3,44.0,29.61,NW,306,0.0,0.0,95,0.00,,OVC008,1.19,0.00,VWS V14.01,2013-01-30 02:06:00,
2013-01-29 20:11:00,45.2,43.9,29.61,NW,313,0.0,0.0,95,0.00,,OVC008,1.19,0.00,VWS V14.01,2013-01-30 02:11:00,
2013-01-29 20:16:00,45.2,43.9,29.58,NW,325,0.0,0.0,95,0.00,,OVC008,1.19,0.00,VWS V14.01,2013-01-30 02:16:00,
2013-01-29 20:21:00,45.0,43.7,29.58,ENE,68,0.0,0.0,95,0.01,,OVC008,1.20,0.00,VWS V14.01,2013-01-30 02:21:00,
2013-01-29 20:26:00,44.7,43.4,29.58,ENE,67,0.0,0.0,95,0.01,,OVC008,1.20,0.00,VWS V14.01,2013-01-30 02:26:00,
2013-01-29 20:31:00,44.6,43.3,29.50,ENE,71,0.0,0.0,95,0.01,,OVC008,1.20,0.00,VWS V14.01,2013-01-30 02:31:00,
2013-01-29 20:36:00,44.5,43.2,29.50,ENE,75,0.0,0.0,95,0.01,,OVC008,1.20,0.00,VWS V14.01,2013-01-30 02:36:00,
2013-01-29 20:41:00,44.5,43.2,29.50,ENE,59,0.0,0.0,95,0.01,,OVC008,1.20,0.00,VWS V14.01,2013-01-30 02:41:00,
2013-01-29 20:46:00,44.5,43.2,29.48,NNE,28,0.0,0.0,95,0.01,,OVC008,1.20,0.00,VWS V14.01,2013-01-30 02:46:00,
2013-01-29 20:51:00,44.3,43.0,29.48,NNE,25,0.0,0.0,95,0.01,,OVC008,1.20,0.00,VWS V14.01,2013-01-30 02:51:00,
2013-01-29 20:56:00,44.5,43.2,29.48,NNE,25,0.0,0.0,95,0.01,,OVC008,1.20,0.00,VWS V14.01,2013-01-30 02:56:00,
2013-01-29 21:01:00,44.6,43.3,29.53,NW,317,0.0,0.0,95,0.01,,-RA,1.20,0.00,VWS V14.01,2013-01-30 03:01:00,
2013-01-29 21:06:00,44.7,43.4,29.53,NW,304,0.0,0.0,95,0.01,,-RA,1.20,0.00,VWS V14.01,2013-01-30 03:06:00,
2013-01-29 21:11:00,44.7,43.4,29.53,NW,304,0.0,0.0,95,0.01,,-RA,1.20,0.00,VWS V14.01,2013-01-30 03:11:00,
2013-01-29 21:16:00,44.6,43.3,29.53,NW,304,0.0,0.0,95,0.01,,-RA,1.20,0.00,VWS V14.01,2013-01-30 03:16:00,
2013-01-29 21:21:00,44.6,43.3,29.53,NW,304,0.0,0.0,95,0.00,,-RA,1.20,0.00,VWS V14.01,2013-01-30 03:21:00,
2013-01-29 21:26:00,44.6,43.3,29.53,NW,304,0.0,0.0,95,0.00,,-RA,1.20,0.00,VWS V14.01,2013-01-30 03:26:00,
2013-01-29 21:31:00,44.6,43.3,29.55,NW,304,0.0,0.0,95,0.00,,-RA,1.20,0.00,VWS V14.01,2013-01-30 03:31:00,
2013-01-29 21:36:00,44.6,43.3,29.55,WNW,302,0.0,0.0,95,0.00,,-RA,1.20,0.00,VWS V14.01,2013-01-30 03:36:00,
2013-01-29 21:41:00,44.6,43.3,29.55,WNW,291,0.0,0.0,95,0.00,,-RA,1.20,0.00,VWS V14.01,2013-01-30 03:41:00,
2013-01-29 21:46:00,44.7,43.4,29.59,WNW,290,0.0,0.0,95,0.00,,-RA,1.20,0.00,VWS V14.01,2013-01-30 03:46:00,
2013-01-29 21:51:00,44.7,43.4,29.59,WNW,294,0.0,0.0,95,0.00,,-RA,1.20,0.00,VWS V14.01,2013-01-30 03:51:00,
2013-01-29 21:56:00,44.7,43.4,29.59,WNW,294,0.0,0.0,95,0.00,,-RA,1.20,0.00,VWS V14.01,2013-01-30 03:56:00,
2013-01-29 22:01:00,44.6,43.3,29.58,WNW,292,0.0,0.0,95,0.00,,BKN008,1.20,0.00,VWS V14.01,2013-01-30 04:01:00,
2013-01-29 22:06:00,44.6,43.3,29.58,WNW,291,0.0,0.0,95,0.00,,BKN008,1.20,0.00,VWS V14.01,2013-01-30 04:06:00,
2013-01-29 22:11:00,44.5,43.2,29.58,WNW,298,0.0,0.0,95,0.00,,BKN008,1.20,0.00,VWS V14.01,2013-01-30 04:11:00,
2013-01-29 22:16:00,44.3,43.0,29.57,West,275,10.0,11.0,95,0.00,,BKN008,1.20,0.00,VWS V14.01,2013-01-30 04:16:00,
2013-01-29 22:21:00,44.2,42.9,29.57,NW,304,0.0,1.0,95,0.00,,BKN008,1.20,0.00,VWS V14.01,2013-01-30 04:21:00,
2013-01-29 22:26:00,44.0,42.7,29.57,WNW,284,10.0,10.0,95,0.00,,BKN008,1.20,0.00,VWS V14.01,2013-01-30 04:26:00,
2013-01-29 22:31:00,43.7,42.4,29.57,West,278,4.0,9.0,95,0.00,,BKN008,1.20,0.00,VWS V14.01,2013-01-30 04:31:00,
2013-01-29 22:36:00,43.6,42.3,29.57,NW,314,9.0,9.0,95,0.00,,BKN008,1.20,0.00,VWS V14.01,2013-01-30 04:36:00,
2013-01-29 22:41:00,43.4,41.8,29.57,NW,321,5.0,9.0,94,0.00,,BKN008,1.20,0.00,VWS V14.01,2013-01-30 04:41:00,
2013-01-29 22:46:00,43.1,41.5,29.57,NW,309,5.0,11.0,94,0.00,,BKN008,1.20,0.00,VWS V14.01,2013-01-30 04:46:00,
2013-01-29 22:51:00,43.0,41.4,29.57,WNW,286,9.0,11.0,94,0.00,,BKN008,1.20,0.00,VWS V14.01,2013-01-30 04:51:00,
2013-01-29 22:56:00,42.7,41.1,29.57,WNW,293,2.0,7.0,94,0.00,,BKN008,1.20,0.00,VWS V14.01,2013-01-30 04:56:00,
2013-01-29 23:00:00,42.6,41.0,29.61,West,273,6.0,11.0,94,0.00,,BKN008,1.20,0.00,VWS V14.01,2013-01-30 05:00:00,
2013-01-29 23:01:00,42.6,41.0,29.61,WNW,282,6.0,6.0,94,0.00,,OVC008,1.20,0.00,VWS V14.01,2013-01-30 05:01:00,
2013-01-29 23:03:00,42.6,41.0,29.61,WSW,248,7.0,13.0,94,0.00,,OVC008,1.20,0.00,VWS V14.01,2013-01-30 05:03:00,
2013-01-29 23:08:00,42.3,40.7,29.61,WNW,299,6.0,13.0,94,0.00,,OVC008,1.20,0.00,VWS V14.01,2013-01-30 05:08:00,
2013-01-29 23:13:00,42.0,40.4,29.61,NW,311,2.0,9.0,94,0.00,,OVC008,1.20,0.00,VWS V14.01,2013-01-30 05:13:00,
2013-01-29 23:18:00,42.0,40.4,29.61,NW,311,0.0,0.0,94,0.00,,OVC008,1.20,0.00,VWS V14.01,2013-01-30 05:18:00,
2013-01-29 23:23:00,42.0,40.4,29.61,NW,311,4.0,6.0,94,0.00,,OVC008,1.20,0.00,VWS V14.01,2013-01-30 05:23:00,
2013-01-29 23:28:00,41.8,39.9,29.61,NW,306,5.0,7.0,93,0.00,,OVC008,1.20,0.00,VWS V14.01,2013-01-30 05:28:00,
2013-01-29 23:33:00,41.8,39.9,29.59,WNW,303,9.0,12.0,93,0.00,,OVC008,1.20,0.00,VWS V14.01,2013-01-30 05:33:00,
2013-01-29 23:38:00,41.7,39.8,29.59,NW,317,3.0,7.0,93,0.00,,OVC008,1.20,0.00,VWS V14.01,2013-01-30 05:38:00,
2013-01-29 23:43:00,41.6,39.7,29.59,NW,319,7.0,9.0,93,0.00,,OVC008,1.20,0.00,VWS V14.01,2013-01-30 05:43:00,
2013-01-29 23:48:00,41.4,39.5,29.57,NW,313,5.0,13.0,93,0.00,,OVC008,1.20,0.00,VWS V14.01,2013-01-30 05:48:00,
2013-01-29 23:53:00,41.1,39.0,29.57,NW,311,7.0,8.0,92,0.00,,OVC008,1.20,0.00,VWS V14.01,2013-01-30 05:53:00,
2013-01-29 23:58:00,40.8,38.7,29.57,NW,313,3.0,11.0,92,0.00,,OVC008,1.20,0.00,VWS V14.01,2013-01-30 05:58:00,